Year,Month,Day,Hour,Minute,Value (Times are PST for temperature in C)
2015,11,18,00,00,4.70
2015,11,18,00,01,4.70
2015,11,18,00,02,4.60
2015,11,18,00,03,4.60
2015,11,18,00,04,4.60
2015,11,18,00,05,4.60
2015,11,18,00,06,4.60
2015,11,18,00,07,4.70
2015,11,18,00,08,4.80
2015,11,18,00,09,4.80
2015,11,18,00,10,4.90
2015,11,18,00,11,4.90
2015,11,18,00,12,5.00
2015,11,18,00,13,5.00
2015,11,18,00,14,5.00
2015,11,18,00,15,4.90
2015,11,18,00,16,5.00
2015,11,18,00,17,5.00
2015,11,18,00,18,5.00
2015,11,18,00,19,5.10
2015,11,18,00,20,5.10
2015,11,18,00,21,5.00
2015,11,18,00,22,5.10
2015,11,18,00,23,5.10
2015,11,18,00,24,5.10
2015,11,18,00,25,5.20
2015,11,18,00,26,5.10
2015,11,18,00,27,5.10
2015,11,18,00,28,5.00
2015,11,18,00,29,4.90
2015,11,18,00,30,4.90
2015,11,18,00,31,4.90
2015,11,18,00,32,4.90
2015,11,18,00,33,4.90
2015,11,18,00,34,4.90
2015,11,18,00,35,4.80
2015,11,18,00,36,4.80
2015,11,18,00,37,4.80
2015,11,18,00,38,4.80
2015,11,18,00,39,4.80
2015,11,18,00,40,4.80
2015,11,18,00,41,4.80
2015,11,18,00,42,4.70
2015,11,18,00,43,4.70
2015,11,18,00,44,4.70
2015,11,18,00,45,4.60
2015,11,18,00,46,4.60
2015,11,18,00,47,4.50
2015,11,18,00,48,4.50
2015,11,18,00,49,4.50
2015,11,18,00,50,4.50
2015,11,18,00,51,4.50
2015,11,18,00,52,4.50
2015,11,18,00,53,4.60
2015,11,18,00,54,4.60
2015,11,18,00,55,4.60
2015,11,18,00,56,4.60
2015,11,18,00,57,4.60
2015,11,18,00,58,4.50
2015,11,18,00,59,4.50
2015,11,18,01,00,4.50
2015,11,18,01,01,4.40
2015,11,18,01,02,4.40
2015,11,18,01,03,4.30
2015,11,18,01,04,4.30
2015,11,18,01,05,4.30
2015,11,18,01,06,4.30
2015,11,18,01,07,4.30
2015,11,18,01,08,4.30
2015,11,18,01,09,4.20
2015,11,18,01,10,4.20
2015,11,18,01,11,4.20
2015,11,18,01,12,4.20
2015,11,18,01,13,4.30
2015,11,18,01,14,4.30
2015,11,18,01,15,4.30
2015,11,18,01,16,4.30
2015,11,18,01,17,4.30
2015,11,18,01,18,4.30
2015,11,18,01,19,4.40
2015,11,18,01,20,4.50
2015,11,18,01,21,4.50
2015,11,18,01,22,4.60
2015,11,18,01,23,4.60
2015,11,18,01,24,4.70
2015,11,18,01,25,4.70
2015,11,18,01,26,4.80
2015,11,18,01,27,4.80
2015,11,18,01,28,4.80
2015,11,18,01,29,4.80
2015,11,18,01,30,4.90
2015,11,18,01,31,4.90
2015,11,18,01,32,5.00
2015,11,18,01,33,5.00
2015,11,18,01,34,5.10
2015,11,18,01,35,5.10
2015,11,18,01,36,5.10
2015,11,18,01,37,5.10
2015,11,18,01,38,5.10
2015,11,18,01,39,5.10
2015,11,18,01,40,5.10
2015,11,18,01,41,5.10
2015,11,18,01,42,5.10
2015,11,18,01,43,5.10
2015,11,18,01,44,5.10
2015,11,18,01,45,5.10
2015,11,18,01,46,5.10
2015,11,18,01,47,5.10
2015,11,18,01,48,5.00
2015,11,18,01,49,5.00
2015,11,18,01,50,5.00
2015,11,18,01,51,5.00
2015,11,18,01,52,4.90
2015,11,18,01,53,4.90
2015,11,18,01,54,4.90
2015,11,18,01,55,4.90
2015,11,18,01,56,4.90
2015,11,18,01,57,4.80
2015,11,18,01,58,4.80
2015,11,18,01,59,4.80
2015,11,18,02,00,4.80
2015,11,18,02,01,4.80
2015,11,18,02,02,4.80
2015,11,18,02,03,4.70
2015,11,18,02,04,4.70
2015,11,18,02,05,4.70
2015,11,18,02,06,4.70
2015,11,18,02,07,4.70
2015,11,18,02,08,4.70
2015,11,18,02,09,4.80
2015,11,18,02,10,4.70
2015,11,18,02,11,4.70
2015,11,18,02,12,4.70
2015,11,18,02,13,4.70
2015,11,18,02,14,4.70
2015,11,18,02,15,4.70
2015,11,18,02,16,4.80
2015,11,18,02,17,4.80
2015,11,18,02,18,4.80
2015,11,18,02,19,4.80
2015,11,18,02,20,4.80
2015,11,18,02,21,4.80
2015,11,18,02,22,4.70
2015,11,18,02,23,4.70
2015,11,18,02,24,4.70
2015,11,18,02,25,4.70
2015,11,18,02,26,4.70
2015,11,18,02,27,4.70
2015,11,18,02,28,4.70
2015,11,18,02,29,4.70
2015,11,18,02,30,4.70
2015,11,18,02,31,4.70
2015,11,18,02,32,4.70
2015,11,18,02,33,4.70
2015,11,18,02,34,4.70
2015,11,18,02,35,4.70
2015,11,18,02,36,4.70
2015,11,18,02,37,4.70
2015,11,18,02,38,4.70
2015,11,18,02,39,4.60
2015,11,18,02,40,4.60
2015,11,18,02,41,4.60
2015,11,18,02,42,4.60
2015,11,18,02,43,4.60
2015,11,18,02,44,4.60
2015,11,18,02,45,4.60
2015,11,18,02,46,4.60
2015,11,18,02,47,4.50
2015,11,18,02,48,4.50
2015,11,18,02,49,4.50
2015,11,18,02,50,4.50
2015,11,18,02,51,4.50
2015,11,18,02,52,4.50
2015,11,18,02,53,4.40
2015,11,18,02,54,4.40
2015,11,18,02,55,4.40
2015,11,18,02,56,4.40
2015,11,18,02,57,4.30
2015,11,18,02,58,4.30
2015,11,18,02,59,4.30
2015,11,18,03,00,4.30
2015,11,18,03,01,4.30
2015,11,18,03,02,4.30
2015,11,18,03,03,4.30
2015,11,18,03,04,4.30
2015,11,18,03,05,4.30
2015,11,18,03,06,4.30
2015,11,18,03,07,4.30
2015,11,18,03,08,4.30
2015,11,18,03,09,4.30
2015,11,18,03,10,4.30
2015,11,18,03,11,4.20
2015,11,18,03,12,4.20
2015,11,18,03,13,4.20
2015,11,18,03,14,4.20
2015,11,18,03,15,4.20
2015,11,18,03,16,4.20
2015,11,18,03,17,4.20
2015,11,18,03,18,4.20
2015,11,18,03,19,4.20
2015,11,18,03,20,4.20
2015,11,18,03,21,4.20
2015,11,18,03,22,4.20
2015,11,18,03,23,4.20
2015,11,18,03,24,4.20
2015,11,18,03,25,4.20
2015,11,18,03,26,4.20
2015,11,18,03,27,4.20
2015,11,18,03,28,4.10
2015,11,18,03,29,4.10
2015,11,18,03,30,4.00
2015,11,18,03,31,4.00
2015,11,18,03,32,3.90
2015,11,18,03,33,3.90
2015,11,18,03,34,3.80
2015,11,18,03,35,3.80
2015,11,18,03,36,3.70
2015,11,18,03,37,3.70
2015,11,18,03,38,3.60
2015,11,18,03,39,3.50
2015,11,18,03,40,3.40
2015,11,18,03,41,3.30
2015,11,18,03,42,3.20
2015,11,18,03,43,3.10
2015,11,18,03,44,3.00
2015,11,18,03,45,3.00
2015,11,18,03,46,2.90
2015,11,18,03,47,2.80
2015,11,18,03,48,2.80
2015,11,18,03,49,2.80
2015,11,18,03,50,2.80
2015,11,18,03,51,2.80
2015,11,18,03,52,2.70
2015,11,18,03,53,2.70
2015,11,18,03,54,2.70
2015,11,18,03,55,2.70
2015,11,18,03,56,2.60
2015,11,18,03,57,2.60
2015,11,18,03,58,2.50
2015,11,18,03,59,2.50
2015,11,18,04,00,2.50
2015,11,18,04,01,2.50
2015,11,18,04,02,2.50
2015,11,18,04,03,2.50
2015,11,18,04,04,2.50
2015,11,18,04,05,2.40
2015,11,18,04,06,2.30
2015,11,18,04,07,2.30
2015,11,18,04,08,2.20
2015,11,18,04,09,2.20
2015,11,18,04,10,2.10
2015,11,18,04,11,2.00
2015,11,18,04,12,2.00
2015,11,18,04,13,1.90
2015,11,18,04,14,1.90
2015,11,18,04,15,1.90
2015,11,18,04,16,1.80
2015,11,18,04,17,1.80
2015,11,18,04,18,1.80
2015,11,18,04,19,1.80
2015,11,18,04,20,1.80
2015,11,18,04,21,1.80
2015,11,18,04,22,1.70
2015,11,18,04,23,1.70
2015,11,18,04,24,1.70
2015,11,18,04,25,1.80
2015,11,18,04,26,1.80
2015,11,18,04,27,1.80
2015,11,18,04,28,1.90
2015,11,18,04,29,1.90
2015,11,18,04,30,2.00
2015,11,18,04,31,2.20
2015,11,18,04,32,2.30
2015,11,18,04,33,2.40
2015,11,18,04,34,2.50
2015,11,18,04,35,2.60
2015,11,18,04,36,2.70
2015,11,18,04,37,2.80
2015,11,18,04,38,2.80
2015,11,18,04,39,2.90
2015,11,18,04,40,3.00
2015,11,18,04,41,3.00
2015,11,18,04,42,3.10
2015,11,18,04,43,3.10
2015,11,18,04,44,3.10
2015,11,18,04,45,3.20
2015,11,18,04,46,3.20
2015,11,18,04,47,3.30
2015,11,18,04,48,3.30
2015,11,18,04,49,3.30
2015,11,18,04,50,3.30
2015,11,18,04,51,3.30
2015,11,18,04,52,3.30
2015,11,18,04,53,3.20
2015,11,18,04,54,3.10
2015,11,18,04,55,3.00
2015,11,18,04,56,2.90
2015,11,18,04,57,2.80
2015,11,18,04,58,2.80
2015,11,18,04,59,2.70
2015,11,18,05,00,2.70
2015,11,18,05,01,2.70
2015,11,18,05,02,2.70
2015,11,18,05,03,2.70
2015,11,18,05,04,2.70
2015,11,18,05,05,2.70
2015,11,18,05,06,2.70
2015,11,18,05,07,2.70
2015,11,18,05,08,2.70
2015,11,18,05,09,2.70
2015,11,18,05,10,2.80
2015,11,18,05,11,2.80
2015,11,18,05,12,2.80
2015,11,18,05,13,2.90
2015,11,18,05,14,2.90
2015,11,18,05,15,3.00
2015,11,18,05,16,3.10
2015,11,18,05,17,3.10
2015,11,18,05,18,3.20
2015,11,18,05,19,3.30
2015,11,18,05,20,3.30
2015,11,18,05,21,3.40
2015,11,18,05,22,3.40
2015,11,18,05,23,3.40
2015,11,18,05,24,3.40
2015,11,18,05,25,3.40
2015,11,18,05,26,3.40
2015,11,18,05,27,3.40
2015,11,18,05,28,3.40
2015,11,18,05,29,3.30
2015,11,18,05,30,3.30
2015,11,18,05,31,3.30
2015,11,18,05,32,3.20
2015,11,18,05,33,3.20
2015,11,18,05,34,3.10
2015,11,18,05,35,3.10
2015,11,18,05,36,3.10
2015,11,18,05,37,3.10
2015,11,18,05,38,3.00
2015,11,18,05,39,3.00
2015,11,18,05,40,3.00
2015,11,18,05,41,2.90
2015,11,18,05,42,2.90
2015,11,18,05,43,2.80
2015,11,18,05,44,2.80
2015,11,18,05,45,2.70
2015,11,18,05,46,2.70
2015,11,18,05,47,2.60
2015,11,18,05,48,2.60
2015,11,18,05,49,2.50
2015,11,18,05,50,2.40
2015,11,18,05,51,2.40
2015,11,18,05,52,2.30
2015,11,18,05,53,2.20
2015,11,18,05,54,2.20
2015,11,18,05,55,2.10
2015,11,18,05,56,2.10
2015,11,18,05,57,2.00
2015,11,18,05,58,2.00
2015,11,18,05,59,2.00
2015,11,18,06,00,2.00
2015,11,18,06,01,2.00
2015,11,18,06,02,2.00
2015,11,18,06,03,1.90
2015,11,18,06,04,1.90
2015,11,18,06,05,1.90
2015,11,18,06,06,2.00
2015,11,18,06,07,1.90
2015,11,18,06,08,1.90
2015,11,18,06,09,1.90
2015,11,18,06,10,1.90
2015,11,18,06,11,1.90
2015,11,18,06,12,1.90
2015,11,18,06,13,1.90
2015,11,18,06,14,1.80
2015,11,18,06,15,1.80
2015,11,18,06,16,1.80
2015,11,18,06,17,1.70
2015,11,18,06,18,1.60
2015,11,18,06,19,1.60
2015,11,18,06,20,1.50
2015,11,18,06,21,1.40
2015,11,18,06,22,1.40
2015,11,18,06,23,1.30
2015,11,18,06,24,1.20
2015,11,18,06,25,1.20
2015,11,18,06,26,1.10
2015,11,18,06,27,1.10
2015,11,18,06,28,1.10
2015,11,18,06,29,1.00
2015,11,18,06,30,0.90
2015,11,18,06,31,0.90
2015,11,18,06,32,0.80
2015,11,18,06,33,0.80
2015,11,18,06,34,0.80
2015,11,18,06,35,0.70
2015,11,18,06,36,0.70
2015,11,18,06,37,0.70
2015,11,18,06,38,0.70
2015,11,18,06,39,0.60
2015,11,18,06,40,0.60
2015,11,18,06,41,0.60
2015,11,18,06,42,0.60
2015,11,18,06,43,0.50
2015,11,18,06,44,0.50
2015,11,18,06,45,0.50
2015,11,18,06,46,0.40
2015,11,18,06,47,0.40
2015,11,18,06,48,0.40
2015,11,18,06,49,0.40
2015,11,18,06,50,0.40
2015,11,18,06,51,0.30
2015,11,18,06,52,0.30
2015,11,18,06,53,0.30
2015,11,18,06,54,0.30
2015,11,18,06,55,0.30
2015,11,18,06,56,0.30
2015,11,18,06,57,0.30
2015,11,18,06,58,0.30
2015,11,18,06,59,0.30
2015,11,18,07,00,0.30
2015,11,18,07,01,0.30
2015,11,18,07,02,0.20
2015,11,18,07,03,0.20
2015,11,18,07,04,0.20
2015,11,18,07,05,0.20
2015,11,18,07,06,0.20
2015,11,18,07,07,0.20
2015,11,18,07,08,0.20
2015,11,18,07,09,0.20
2015,11,18,07,10,0.10
2015,11,18,07,11,0.10
2015,11,18,07,12,0.10
2015,11,18,07,13,0.10
2015,11,18,07,14,0.10
2015,11,18,07,15,0.10
2015,11,18,07,16,0.10
2015,11,18,07,17,0.10
2015,11,18,07,18,0.10
2015,11,18,07,19,0.10
2015,11,18,07,20,0.10
2015,11,18,07,21,0.20
2015,11,18,07,22,0.20
2015,11,18,07,23,0.20
2015,11,18,07,24,0.20
2015,11,18,07,25,0.20
2015,11,18,07,26,0.20
2015,11,18,07,27,0.30
2015,11,18,07,28,0.30
2015,11,18,07,29,0.30
2015,11,18,07,30,0.30
2015,11,18,07,31,0.40
2015,11,18,07,32,0.40
2015,11,18,07,33,0.40
2015,11,18,07,34,0.30
2015,11,18,07,35,0.30
2015,11,18,07,36,0.30
2015,11,18,07,37,0.20
2015,11,18,07,38,0.20
2015,11,18,07,39,0.20
2015,11,18,07,40,0.20
2015,11,18,07,41,0.20
2015,11,18,07,42,0.20
2015,11,18,07,43,0.20
2015,11,18,07,44,0.10
2015,11,18,07,45,0.10
2015,11,18,07,46,0.10
2015,11,18,07,47,0.10
2015,11,18,07,48,0.10
2015,11,18,07,49,0.10
2015,11,18,07,50,0.10
2015,11,18,07,51,0.10
2015,11,18,07,52,0.00
2015,11,18,07,53,0.00
2015,11,18,07,54,0.00
2015,11,18,07,55,0.00
2015,11,18,07,56,0.00
2015,11,18,07,57,0.00
2015,11,18,07,58,0.00
2015,11,18,07,59,0.00
2015,11,18,08,00,-0.10
2015,11,18,08,01,-0.10
2015,11,18,08,02,-0.10
2015,11,18,08,03,-0.10
2015,11,18,08,04,-0.10
2015,11,18,08,05,0.00
2015,11,18,08,06,0.00
2015,11,18,08,07,0.10
2015,11,18,08,08,0.10
2015,11,18,08,09,0.10
2015,11,18,08,10,0.10
2015,11,18,08,11,0.20
2015,11,18,08,12,0.20
2015,11,18,08,13,0.10
2015,11,18,08,14,0.10
2015,11,18,08,15,0.10
2015,11,18,08,16,0.10
2015,11,18,08,17,0.10
2015,11,18,08,18,0.10
2015,11,18,08,19,0.20
2015,11,18,08,20,0.20
2015,11,18,08,21,0.20
2015,11,18,08,22,0.20
2015,11,18,08,23,0.20
2015,11,18,08,24,0.20
2015,11,18,08,25,0.30
2015,11,18,08,26,0.30
2015,11,18,08,27,0.30
2015,11,18,08,28,0.30
2015,11,18,08,29,0.40
2015,11,18,08,30,0.40
2015,11,18,08,31,0.40
2015,11,18,08,32,0.40
2015,11,18,08,33,0.40
2015,11,18,08,34,0.50
2015,11,18,08,35,0.50
2015,11,18,08,36,0.50
2015,11,18,08,37,0.60
2015,11,18,08,38,0.60
2015,11,18,08,39,0.60
2015,11,18,08,40,0.60
2015,11,18,08,41,0.60
2015,11,18,08,42,0.70
2015,11,18,08,43,0.70
2015,11,18,08,44,0.70
2015,11,18,08,45,0.70
2015,11,18,08,46,0.80
2015,11,18,08,47,0.80
2015,11,18,08,48,0.90
2015,11,18,08,49,0.90
2015,11,18,08,50,1.00
2015,11,18,08,51,1.00
2015,11,18,08,52,1.00
2015,11,18,08,53,1.00
2015,11,18,08,54,1.00
2015,11,18,08,55,1.10
2015,11,18,08,56,1.10
2015,11,18,08,57,1.10
2015,11,18,08,58,1.10
2015,11,18,08,59,1.10
2015,11,18,09,00,1.10
2015,11,18,09,01,1.10
2015,11,18,09,02,1.10
2015,11,18,09,03,1.10
2015,11,18,09,04,1.10
2015,11,18,09,05,1.10
2015,11,18,09,06,1.10
2015,11,18,09,07,1.10
2015,11,18,09,08,1.10
2015,11,18,09,09,1.10
2015,11,18,09,10,1.10
2015,11,18,09,11,1.10
2015,11,18,09,12,1.20
2015,11,18,09,13,1.20
2015,11,18,09,14,1.20
2015,11,18,09,15,1.20
2015,11,18,09,16,1.30
2015,11,18,09,17,1.30
2015,11,18,09,18,1.30
2015,11,18,09,19,1.30
2015,11,18,09,20,1.30
2015,11,18,09,21,1.30
2015,11,18,09,22,1.30
2015,11,18,09,23,1.30
2015,11,18,09,24,1.30
2015,11,18,09,25,1.30
2015,11,18,09,26,1.30
2015,11,18,09,27,1.40
2015,11,18,09,28,1.40
2015,11,18,09,29,1.40
2015,11,18,09,30,1.40
2015,11,18,09,31,1.40
2015,11,18,09,32,1.40
2015,11,18,09,33,1.40
2015,11,18,09,34,1.50
2015,11,18,09,35,1.50
2015,11,18,09,36,1.60
2015,11,18,09,37,1.60
2015,11,18,09,38,1.60
2015,11,18,09,39,1.60
2015,11,18,09,40,1.60
2015,11,18,09,41,1.60
2015,11,18,09,42,1.70
2015,11,18,09,43,1.70
2015,11,18,09,44,1.70
2015,11,18,09,45,1.70
2015,11,18,09,46,1.70
2015,11,18,09,47,1.80
2015,11,18,09,48,1.80
2015,11,18,09,49,1.80
2015,11,18,09,50,1.80
2015,11,18,09,51,1.90
2015,11,18,09,52,1.90
2015,11,18,09,53,1.90
2015,11,18,09,54,2.00
2015,11,18,09,55,2.00
2015,11,18,09,56,2.00
2015,11,18,09,57,2.00
2015,11,18,09,58,2.00
2015,11,18,09,59,2.10
2015,11,18,10,00,2.10
2015,11,18,10,01,2.10
2015,11,18,10,02,2.10
2015,11,18,10,03,2.20
2015,11,18,10,04,2.20
2015,11,18,10,05,2.20
2015,11,18,10,06,2.20
2015,11,18,10,07,2.30
2015,11,18,10,08,2.30
2015,11,18,10,09,2.30
2015,11,18,10,10,2.30
2015,11,18,10,11,2.40
2015,11,18,10,12,2.40
2015,11,18,10,13,2.40
2015,11,18,10,14,2.50
2015,11,18,10,15,2.50
2015,11,18,10,16,2.50
2015,11,18,10,17,2.60
2015,11,18,10,18,2.60
2015,11,18,10,19,2.60
2015,11,18,10,20,2.60
2015,11,18,10,21,2.60
2015,11,18,10,22,2.60
2015,11,18,10,23,2.60
2015,11,18,10,24,2.60
2015,11,18,10,25,2.60
2015,11,18,10,26,2.60
2015,11,18,10,27,2.60
2015,11,18,10,28,2.60
2015,11,18,10,29,2.70
2015,11,18,10,30,2.70
2015,11,18,10,31,2.70
2015,11,18,10,32,2.70
2015,11,18,10,33,2.70
2015,11,18,10,34,2.70
2015,11,18,10,35,2.80
2015,11,18,10,36,2.80
2015,11,18,10,37,2.80
2015,11,18,10,38,2.80
2015,11,18,10,39,2.80
2015,11,18,10,40,2.90
2015,11,18,10,41,2.90
2015,11,18,10,42,2.90
2015,11,18,10,43,2.90
2015,11,18,10,44,3.00
2015,11,18,10,45,3.00
2015,11,18,10,46,3.00
2015,11,18,10,47,3.00
2015,11,18,10,48,3.10
2015,11,18,10,49,3.10
2015,11,18,10,50,3.10
2015,11,18,10,51,3.10
2015,11,18,10,52,3.20
2015,11,18,10,53,3.20
2015,11,18,10,54,3.20
2015,11,18,10,55,3.20
2015,11,18,10,56,3.20
2015,11,18,10,57,3.20
2015,11,18,10,58,3.20
2015,11,18,10,59,3.20
2015,11,18,11,00,3.20
2015,11,18,11,01,3.30
2015,11,18,11,02,3.30
2015,11,18,11,03,3.30
2015,11,18,11,04,3.30
2015,11,18,11,05,3.30
2015,11,18,11,06,3.40
2015,11,18,11,07,3.40
2015,11,18,11,08,3.40
2015,11,18,11,09,3.50
2015,11,18,11,10,3.50
2015,11,18,11,11,3.60
2015,11,18,11,12,3.60
2015,11,18,11,13,3.60
2015,11,18,11,14,3.60
2015,11,18,11,15,3.70
2015,11,18,11,16,3.70
2015,11,18,11,17,3.70
2015,11,18,11,18,3.70
2015,11,18,11,19,3.70
2015,11,18,11,20,3.80
2015,11,18,11,21,3.80
2015,11,18,11,22,3.80
2015,11,18,11,23,3.80
2015,11,18,11,24,3.90
2015,11,18,11,25,3.90
2015,11,18,11,26,3.90
2015,11,18,11,27,3.90
2015,11,18,11,28,4.00
2015,11,18,11,29,4.00
2015,11,18,11,30,4.00
2015,11,18,11,31,4.00
2015,11,18,11,32,4.00
2015,11,18,11,33,4.10
2015,11,18,11,34,4.20
2015,11,18,11,35,4.20
2015,11,18,11,36,4.20
2015,11,18,11,37,4.20
2015,11,18,11,38,4.20
2015,11,18,11,39,4.20
2015,11,18,11,40,4.30
2015,11,18,11,41,4.30
2015,11,18,11,42,4.30
2015,11,18,11,43,4.30
2015,11,18,11,44,4.30
2015,11,18,11,45,4.30
2015,11,18,11,46,4.40
2015,11,18,11,47,4.40
2015,11,18,11,48,4.50
2015,11,18,11,49,4.50
2015,11,18,11,50,4.50
2015,11,18,11,51,4.60
2015,11,18,11,52,4.60
2015,11,18,11,53,4.60
2015,11,18,11,54,4.60
2015,11,18,11,55,4.60
2015,11,18,11,56,4.60
2015,11,18,11,57,4.60
2015,11,18,11,58,4.60
2015,11,18,11,59,4.60
2015,11,18,12,00,4.60
2015,11,18,12,01,4.70
2015,11,18,12,02,4.70
2015,11,18,12,03,4.70
2015,11,18,12,04,4.70
2015,11,18,12,05,4.70
2015,11,18,12,06,4.80
2015,11,18,12,07,4.80
2015,11,18,12,08,4.90
2015,11,18,12,09,4.90
2015,11,18,12,10,4.90
2015,11,18,12,11,4.90
2015,11,18,12,12,5.00
2015,11,18,12,13,5.00
2015,11,18,12,14,5.10
2015,11,18,12,15,5.10
2015,11,18,12,16,5.10
2015,11,18,12,17,5.10
2015,11,18,12,18,5.10
2015,11,18,12,19,5.20
2015,11,18,12,20,5.20
2015,11,18,12,21,5.20
2015,11,18,12,22,5.30
2015,11,18,12,23,5.30
2015,11,18,12,24,5.30
2015,11,18,12,25,5.30
2015,11,18,12,26,5.30
2015,11,18,12,27,5.30
2015,11,18,12,28,5.30
2015,11,18,12,29,5.30
2015,11,18,12,30,5.30
2015,11,18,12,31,5.30
2015,11,18,12,32,5.30
2015,11,18,12,33,5.30
2015,11,18,12,34,5.30
2015,11,18,12,35,5.30
2015,11,18,12,36,5.30
2015,11,18,12,37,5.30
2015,11,18,12,38,5.30
2015,11,18,12,39,5.30
2015,11,18,12,40,5.30
2015,11,18,12,41,5.30
2015,11,18,12,42,5.30
2015,11,18,12,43,5.30
2015,11,18,12,44,5.40
2015,11,18,12,45,5.40
2015,11,18,12,46,5.40
2015,11,18,12,47,5.40
2015,11,18,12,48,5.40
2015,11,18,12,49,5.40
2015,11,18,12,50,5.40
2015,11,18,12,51,5.40
2015,11,18,12,52,5.40
2015,11,18,12,53,5.50
2015,11,18,12,54,5.50
2015,11,18,12,55,5.50
2015,11,18,12,56,5.60
2015,11,18,12,57,5.60
2015,11,18,12,58,5.60
2015,11,18,12,59,5.60
2015,11,18,13,00,5.70
2015,11,18,13,01,5.70
2015,11,18,13,02,5.70
2015,11,18,13,03,5.70
2015,11,18,13,04,5.70
2015,11,18,13,05,5.70
2015,11,18,13,06,5.70
2015,11,18,13,07,5.70
2015,11,18,13,08,5.70
2015,11,18,13,09,5.70
2015,11,18,13,10,5.70
2015,11,18,13,11,5.70
2015,11,18,13,12,5.70
2015,11,18,13,13,5.70
2015,11,18,13,14,5.70
2015,11,18,13,15,5.70
2015,11,18,13,16,5.70
2015,11,18,13,17,5.80
2015,11,18,13,18,5.80
2015,11,18,13,19,5.80
2015,11,18,13,20,5.80
2015,11,18,13,21,5.80
2015,11,18,13,22,5.80
2015,11,18,13,23,5.80
2015,11,18,13,24,5.80
2015,11,18,13,25,5.80
2015,11,18,13,26,5.80
2015,11,18,13,27,5.80
2015,11,18,13,28,5.80
2015,11,18,13,29,5.80
2015,11,18,13,30,5.90
2015,11,18,13,31,5.90
2015,11,18,13,32,5.90
2015,11,18,13,33,5.90
2015,11,18,13,34,5.90
2015,11,18,13,35,5.90
2015,11,18,13,36,5.90
2015,11,18,13,37,5.90
2015,11,18,13,38,5.90
2015,11,18,13,39,5.90
2015,11,18,13,40,6.00
2015,11,18,13,41,6.00
2015,11,18,13,42,6.00
2015,11,18,13,43,6.10
2015,11,18,13,44,6.10
2015,11,18,13,45,6.10
2015,11,18,13,46,6.10
2015,11,18,13,47,6.10
2015,11,18,13,48,6.10
2015,11,18,13,49,6.10
2015,11,18,13,50,6.10
2015,11,18,13,51,6.10
2015,11,18,13,52,6.20
2015,11,18,13,53,6.20
2015,11,18,13,54,6.20
2015,11,18,13,55,6.20
2015,11,18,13,56,6.20
2015,11,18,13,57,6.20
2015,11,18,13,58,6.30
2015,11,18,13,59,6.30
2015,11,18,14,00,6.30
2015,11,18,14,01,6.30
2015,11,18,14,02,6.40
2015,11,18,14,03,6.40
2015,11,18,14,04,6.50
2015,11,18,14,05,6.50
2015,11,18,14,06,6.60
2015,11,18,14,07,6.60
2015,11,18,14,08,6.60
2015,11,18,14,09,6.70
2015,11,18,14,10,6.70
2015,11,18,14,11,6.70
2015,11,18,14,12,6.80
2015,11,18,14,13,6.80
2015,11,18,14,14,6.80
2015,11,18,14,15,6.80
2015,11,18,14,16,6.80
2015,11,18,14,17,6.80
2015,11,18,14,18,6.80
2015,11,18,14,19,6.80
2015,11,18,14,20,6.80
2015,11,18,14,21,6.80
2015,11,18,14,22,6.80
2015,11,18,14,23,6.80
2015,11,18,14,24,6.80
2015,11,18,14,25,6.80
2015,11,18,14,26,6.80
2015,11,18,14,27,6.80
2015,11,18,14,28,6.80
2015,11,18,14,29,6.80
2015,11,18,14,30,6.80
2015,11,18,14,31,6.80
2015,11,18,14,32,6.80
2015,11,18,14,33,6.80
2015,11,18,14,34,6.80
2015,11,18,14,35,6.80
2015,11,18,14,36,6.70
2015,11,18,14,37,6.70
2015,11,18,14,38,6.70
2015,11,18,14,39,6.70
2015,11,18,14,40,6.70
2015,11,18,14,41,6.70
2015,11,18,14,42,6.70
2015,11,18,14,43,6.70
2015,11,18,14,44,6.70
2015,11,18,14,45,6.60
2015,11,18,14,46,6.60
2015,11,18,14,47,6.60
2015,11,18,14,48,6.60
2015,11,18,14,49,6.50
2015,11,18,14,50,6.50
2015,11,18,14,51,6.50
2015,11,18,14,52,6.40
2015,11,18,14,53,6.40
2015,11,18,14,54,6.40
2015,11,18,14,55,6.30
2015,11,18,14,56,6.30
2015,11,18,14,57,6.30
2015,11,18,14,58,6.30
2015,11,18,14,59,6.20
2015,11,18,15,00,6.20
2015,11,18,15,01,6.20
2015,11,18,15,02,6.20
2015,11,18,15,03,6.20
2015,11,18,15,04,6.20
2015,11,18,15,05,6.20
2015,11,18,15,06,6.20
2015,11,18,15,07,6.20
2015,11,18,15,08,6.20
2015,11,18,15,09,6.20
2015,11,18,15,10,6.20
2015,11,18,15,11,6.20
2015,11,18,15,12,6.10
2015,11,18,15,13,6.10
2015,11,18,15,14,6.10
2015,11,18,15,15,6.10
2015,11,18,15,16,6.10
2015,11,18,15,17,6.00
2015,11,18,15,18,6.00
2015,11,18,15,19,6.00
2015,11,18,15,20,5.90
2015,11,18,15,21,5.90
2015,11,18,15,22,5.90
2015,11,18,15,23,5.80
2015,11,18,15,24,5.80
2015,11,18,15,25,5.80
2015,11,18,15,26,5.80
2015,11,18,15,27,5.80
2015,11,18,15,28,5.70
2015,11,18,15,29,5.70
2015,11,18,15,30,5.70
2015,11,18,15,31,5.60
2015,11,18,15,32,5.60
2015,11,18,15,33,5.50
2015,11,18,15,34,5.50
2015,11,18,15,35,5.40
2015,11,18,15,36,5.40
2015,11,18,15,37,5.30
2015,11,18,15,38,5.30
2015,11,18,15,39,5.20
2015,11,18,15,40,5.20
2015,11,18,15,41,5.10
2015,11,18,15,42,5.10
2015,11,18,15,43,5.00
2015,11,18,15,44,5.00
2015,11,18,15,45,4.90
2015,11,18,15,46,4.90
2015,11,18,15,47,4.80
2015,11,18,15,48,4.80
2015,11,18,15,49,4.70
2015,11,18,15,50,4.70
2015,11,18,15,51,4.60
2015,11,18,15,52,4.60
2015,11,18,15,53,4.50
2015,11,18,15,54,4.50
2015,11,18,15,55,4.40
2015,11,18,15,56,4.40
2015,11,18,15,57,4.30
2015,11,18,15,58,4.30
2015,11,18,15,59,4.30
2015,11,18,16,00,4.20
2015,11,18,16,01,4.20
2015,11,18,16,02,4.10
2015,11,18,16,03,4.10
2015,11,18,16,04,4.10
2015,11,18,16,05,4.00
2015,11,18,16,06,3.90
2015,11,18,16,07,3.90
2015,11,18,16,08,3.90
2015,11,18,16,09,3.80
2015,11,18,16,10,3.80
2015,11,18,16,11,3.80
2015,11,18,16,12,3.70
2015,11,18,16,13,3.70
2015,11,18,16,14,3.70
2015,11,18,16,15,3.70
2015,11,18,16,16,3.70
2015,11,18,16,17,3.60
2015,11,18,16,18,3.60
2015,11,18,16,19,3.60
2015,11,18,16,20,3.60
2015,11,18,16,21,3.60
2015,11,18,16,22,3.60
2015,11,18,16,23,3.50
2015,11,18,16,24,3.50
2015,11,18,16,25,3.50
2015,11,18,16,26,3.50
2015,11,18,16,27,3.40
2015,11,18,16,28,3.40
2015,11,18,16,29,3.30
2015,11,18,16,30,3.30
2015,11,18,16,31,3.30
2015,11,18,16,32,3.20
2015,11,18,16,33,3.20
2015,11,18,16,34,3.20
2015,11,18,16,35,3.10
2015,11,18,16,36,3.10
2015,11,18,16,37,3.10
2015,11,18,16,38,3.10
2015,11,18,16,39,3.00
2015,11,18,16,40,3.00
2015,11,18,16,41,3.00
2015,11,18,16,42,3.00
2015,11,18,16,43,3.00
2015,11,18,16,44,2.90
2015,11,18,16,45,2.90
2015,11,18,16,46,2.90
2015,11,18,16,47,2.90
2015,11,18,16,48,2.90
2015,11,18,16,49,2.90
2015,11,18,16,50,2.90
2015,11,18,16,51,2.90
2015,11,18,16,52,2.90
2015,11,18,16,53,2.90
2015,11,18,16,54,2.80
2015,11,18,16,55,2.80
2015,11,18,16,56,2.80
2015,11,18,16,57,2.80
2015,11,18,16,58,2.70
2015,11,18,16,59,2.70
2015,11,18,17,00,2.70
2015,11,18,17,01,2.70
2015,11,18,17,02,2.60
2015,11,18,17,03,2.60
2015,11,18,17,04,2.60
2015,11,18,17,05,2.60
2015,11,18,17,06,2.60
2015,11,18,17,07,2.70
2015,11,18,17,08,2.70
2015,11,18,17,09,2.60
2015,11,18,17,10,2.70
2015,11,18,17,11,2.70
2015,11,18,17,12,2.70
2015,11,18,17,13,2.70
2015,11,18,17,14,2.70
2015,11,18,17,15,2.70
2015,11,18,17,16,2.70
2015,11,18,17,17,2.70
2015,11,18,17,18,2.70
2015,11,18,17,19,2.60
2015,11,18,17,20,2.60
2015,11,18,17,21,2.60
2015,11,18,17,22,2.60
2015,11,18,17,23,2.60
2015,11,18,17,24,2.60
2015,11,18,17,25,2.50
2015,11,18,17,26,2.50
2015,11,18,17,27,2.50
2015,11,18,17,28,2.50
2015,11,18,17,29,2.50
2015,11,18,17,30,2.40
2015,11,18,17,31,2.40
2015,11,18,17,32,2.40
2015,11,18,17,33,2.40
2015,11,18,17,34,2.40
2015,11,18,17,35,2.40
2015,11,18,17,36,2.40
2015,11,18,17,37,2.40
2015,11,18,17,38,2.40
2015,11,18,17,39,2.40
2015,11,18,17,40,2.40
2015,11,18,17,41,2.40
2015,11,18,17,42,2.40
2015,11,18,17,43,2.40
2015,11,18,17,44,2.40
2015,11,18,17,45,2.40
2015,11,18,17,46,2.40
2015,11,18,17,47,2.40
2015,11,18,17,48,2.30
2015,11,18,17,49,2.30
2015,11,18,17,50,2.30
2015,11,18,17,51,2.30
2015,11,18,17,52,2.30
2015,11,18,17,53,2.30
2015,11,18,17,54,2.30
2015,11,18,17,55,2.30
2015,11,18,17,56,2.30
2015,11,18,17,57,2.30
2015,11,18,17,58,2.30
2015,11,18,17,59,2.30
2015,11,18,18,00,2.30
2015,11,18,18,01,2.30
2015,11,18,18,02,2.20
2015,11,18,18,03,2.20
2015,11,18,18,04,2.20
2015,11,18,18,05,2.20
2015,11,18,18,06,2.20